TimeCST,TemperatureF,Dew PointF,Humidity,Sea Level PressureIn,VisibilityMPH,Wind Direction,Wind SpeedMPH,Gust SpeedMPH,PrecipitationIn,Events,Conditions,WindDirDegrees,DateUTC
12:15 AM,7.2,2.7,82,30.28,10.0,ESE,3.5,-,N/A,,Overcast,120,2013-01-25 06:15:00
12:35 AM,7.3,3.0,82,30.27,10.0,ESE,3.5,-,N/A,,Overcast,120,2013-01-25 06:35:00
12:55 AM,7.5,3.4,83,30.25,10.0,SE,6.9,-,N/A,,Overcast,130,2013-01-25 06:55:00
1:15 AM,7.7,3.6,83,30.23,10.0,SE,5.8,-,N/A,,Overcast,140,2013-01-25 07:15:00
1:35 AM,8.2,3.9,83,30.21,10.0,SSE,4.6,-,N/A,,Overcast,150,2013-01-25 07:35:00
1:55 AM,9.0,4.5,82,30.20,4.0,SSE,6.9,-,N/A,Snow,Light Snow,160,2013-01-25 07:55:00
2:15 AM,9.1,5.7,86,30.18,1.5,SSE,8.1,-,N/A,Snow,Light Snow,150,2013-01-25 08:15:00
2:35 AM,9.5,6.4,87,30.16,2.0,SSE,6.9,-,N/A,Snow,Light Snow,150,2013-01-25 08:35:00
2:55 AM,10.4,7.0,86,30.14,2.5,SSE,5.8,-,N/A,Snow,Light Snow,150,2013-01-25 08:55:00
3:15 AM,10.9,7.7,87,30.13,1.5,SSE,8.1,-,N/A,Snow,Light Snow,160,2013-01-25 09:15:00
3:35 AM,11.1,7.7,86,30.12,1.8,South,8.1,-,N/A,,Overcast,170,2013-01-25 09:35:00
3:55 AM,11.3,7.9,86,30.11,2.0,SSE,8.1,-,N/A,,Overcast,160,2013-01-25 09:55:00
4:15 AM,11.3,8.1,87,30.09,1.8,SSE,5.8,-,N/A,,Overcast,160,2013-01-25 10:15:00
4:35 AM,11.3,8.2,87,30.08,1.5,South,6.9,-,N/A,,Overcast,170,2013-01-25 10:35:00
4:55 AM,11.3,8.1,87,30.05,2.5,SSE,8.1,-,N/A,,Overcast,160,2013-01-25 10:55:00
5:15 AM,11.3,8.2,87,30.05,3.0,South,8.1,-,N/A,,Overcast,170,2013-01-25 11:15:00
5:35 AM,11.7,8.2,86,30.04,7.0,South,6.9,-,N/A,,Overcast,170,2013-01-25 11:35:00
5:55 AM,11.7,8.2,86,30.02,10.0,South,9.2,-,N/A,Snow,Light Snow,170,2013-01-25 11:55:00
6:15 AM,11.8,8.4,86,30.01,7.0,South,9.2,-,N/A,Snow,Light Snow,180,2013-01-25 12:15:00
6:35 AM,12.0,8.6,86,30.01,10.0,South,9.2,-,N/A,Snow,Light Snow,180,2013-01-25 12:35:00
6:55 AM,12.0,8.6,86,30.00,10.0,South,9.2,-,N/A,Snow,Light Snow,180,2013-01-25 12:55:00
7:35 AM,12.2,9.1,88,29.98,4.0,South,8.1,-,N/A,Snow,Light Snow,180,2013-01-25 13:35:00
7:55 AM,12.6,9.3,87,29.97,3.0,South,9.2,-,N/A,Snow,Light Snow,190,2013-01-25 13:55:00
8:15 AM,12.7,9.5,87,29.96,1.5,SSW,8.1,-,N/A,Snow,Light Snow,200,2013-01-25 14:15:00
8:35 AM,12.7,9.7,88,29.96,1.5,South,8.1,-,N/A,Snow,Light Snow,190,2013-01-25 14:35:00
8:55 AM,13.1,10.0,88,29.95,1.8,SSW,9.2,-,N/A,Snow,Light Snow,200,2013-01-25 14:55:00
9:15 AM,13.5,10.2,87,29.95,1.8,SSW,9.2,-,N/A,Snow,Light Snow,200,2013-01-25 15:15:00
9:35 AM,13.6,10.4,87,29.94,2.0,SSW,9.2,-,N/A,Snow,Light Snow,200,2013-01-25 15:35:00
9:55 AM,14.0,10.4,86,29.93,2.0,SSW,8.1,-,N/A,Snow,Light Snow,210,2013-01-25 15:55:00
10:15 AM,14.4,10.8,86,29.93,2.0,SSW,6.9,-,N/A,Snow,Light Snow,200,2013-01-25 16:15:00
10:35 AM,14.7,11.1,86,29.92,1.8,SSW,6.9,-,N/A,Snow,Light Snow,200,2013-01-25 16:35:00
10:55 AM,14.9,11.3,86,29.91,1.8,SSW,6.9,-,N/A,Snow,Light Snow,210,2013-01-25 16:55:00
11:15 AM,15.4,11.7,85,29.90,1.5,SSW,6.9,-,N/A,Snow,Light Snow,210,2013-01-25 17:15:00
11:35 AM,15.8,11.8,84,29.90,1.2,SW,5.8,-,N/A,Snow,Light Snow,220,2013-01-25 17:35:00
11:55 AM,16.2,12.0,84,29.88,1.5,WSW,8.1,-,N/A,Snow,Light Snow,240,2013-01-25 17:55:00
12:15 PM,16.3,12.0,83,29.88,1.5,WSW,5.8,-,N/A,Snow,Light Snow,250,2013-01-25 18:15:00
12:35 PM,16.5,12.2,83,29.87,1.5,WSW,5.8,-,N/A,Snow,Light Snow,240,2013-01-25 18:35:00
12:55 PM,16.7,11.8,81,29.88,1.8,West,8.1,-,N/A,Snow,Light Snow,260,2013-01-25 18:55:00
1:35 PM,16.7,11.8,81,29.88,2.0,West,8.1,-,N/A,Snow,Light Snow,260,2013-01-25 19:35:00
1:55 PM,16.7,11.3,79,29.89,3.0,West,5.8,-,N/A,Snow,Light Snow,270,2013-01-25 19:55:00
2:15 PM,17.1,10.8,76,29.90,4.0,West,9.2,16.1,N/A,Snow,Light Snow,270,2013-01-25 20:15:00
2:35 PM,17.1,10.9,77,29.90,4.0,West,9.2,17.3,N/A,Snow,Light Snow,270,2013-01-25 20:35:00
2:55 PM,17.2,11.3,78,29.91,3.0,WNW,8.1,-,N/A,Snow,Light Snow,290,2013-01-25 20:55:00
3:15 PM,17.2,10.9,76,29.92,3.0,WNW,6.9,16.1,N/A,Snow,Light Snow,300,2013-01-25 21:15:00
3:35 PM,17.4,8.2,67,29.93,10.0,West,10.4,-,N/A,,Overcast,280,2013-01-25 21:35:00
3:55 PM,17.4,7.9,66,29.94,10.0,WNW,8.1,-,N/A,,Overcast,290,2013-01-25 21:55:00
4:15 PM,17.1,9.0,71,29.95,10.0,WNW,8.1,-,N/A,,Overcast,290,2013-01-25 22:15:00
4:35 PM,16.7,10.0,75,29.96,10.0,WNW,6.9,-,N/A,,Overcast,300,2013-01-25 22:35:00
4:55 PM,16.5,8.6,71,29.97,10.0,NW,8.1,-,N/A,,Overcast,310,2013-01-25 22:55:00
5:15 PM,16.5,7.7,68,29.98,10.0,NW,8.1,-,N/A,,Overcast,310,2013-01-25 23:15:00
5:35 PM,16.2,8.1,70,29.98,10.0,WNW,6.9,-,N/A,,Overcast,300,2013-01-25 23:35:00
5:55 PM,15.6,8.2,73,30.00,10.0,NW,8.1,-,N/A,,Overcast,310,2013-01-25 23:55:00
6:15 PM,15.6,8.6,74,30.01,10.0,WNW,4.6,-,N/A,,Overcast,300,2013-01-26 00:15:00
6:35 PM,15.4,9.0,76,30.03,10.0,NW,8.1,-,N/A,,Overcast,320,2013-01-26 00:35:00
6:55 PM,14.9,8.6,76,30.03,10.0,NW,5.8,-,N/A,,Overcast,310,2013-01-26 00:55:00
7:15 PM,14.5,8.6,77,30.03,10.0,NW,4.6,-,N/A,,Overcast,310,2013-01-26 01:15:00
7:35 PM,13.8,8.2,78,30.04,10.0,NW,4.6,-,N/A,,Mostly Cloudy,310,2013-01-26 01:35:00
7:55 PM,13.1,8.1,80,30.05,10.0,WNW,4.6,-,N/A,,Clear,290,2013-01-26 01:55:00
8:15 PM,12.2,7.7,82,30.07,10.0,WNW,4.6,-,N/A,,Clear,300,2013-01-26 02:15:00
8:35 PM,12.0,6.8,80,30.08,10.0,NW,5.8,-,N/A,,Clear,310,2013-01-26 02:35:00
8:55 PM,11.5,6.1,79,30.08,10.0,NW,4.6,-,N/A,,Clear,310,2013-01-26 02:55:00
9:15 PM,11.1,5.5,78,30.09,10.0,NW,4.6,-,N/A,,Clear,320,2013-01-26 03:15:00
9:35 PM,10.4,5.0,79,30.09,10.0,WNW,4.6,-,N/A,,Clear,300,2013-01-26 03:35:00
9:55 PM,10.4,4.6,78,30.10,10.0,WNW,4.6,-,N/A,,Clear,300,2013-01-26 03:55:00
10:15 PM,10.0,4.1,77,30.11,10.0,WNW,5.8,-,N/A,,Clear,290,2013-01-26 04:15:00
10:35 PM,9.5,3.6,77,30.12,10.0,WNW,4.6,-,N/A,,Clear,290,2013-01-26 04:35:00
10:55 PM,9.1,3.0,76,30.13,10.0,WNW,5.8,-,N/A,,Clear,290,2013-01-26 04:55:00
11:15 PM,8.6,2.8,77,30.14,10.0,WNW,3.5,-,N/A,,Clear,290,2013-01-26 05:15:00
11:35 PM,7.5,2.3,79,30.15,10.0,West,4.6,-,N/A,,Clear,270,2013-01-26 05:35:00
11:55 PM,7.2,2.1,80,30.16,10.0,NW,6.9,-,N/A,,Clear,310,2013-01-26 05:55:00